Weather Service Report


723 
ASUS46 KSEW 290310
RWRWA 

WASHINGTON REGIONAL WEATHER ROUNDUP
NATIONAL WEATHER SERVICE SEATTLE WA
700 PM PST FRI NOV 28 2014

NOTE:"FAIR" INDICATES FEW OR NO CLOUDS BELOW 12,000 FEET WITH NO 
SIGNIFICANT WEATHER AND/OR OBSTRUCTIONS TO VISIBILITY.

WAZ505-507>509-290400-
SEATTLE, TACOMA, EVERETT, AND VICINITY
  
CITY           SKY/WX    TMP DP  RH WIND       PRES   REMARKS
EVERETT        LGT RAIN  36  34  92 SE3       29.48S                  
BOEING FIELD   LGT RAIN  41  36  82 S3        29.51R                  
RENTON         LGT RAIN  39  38  96 S8        29.51R                  
SEATAC AIRPORT LGT RAIN  38  36  92 S6        29.51R                  
JBLM-MCCHORD   LGT RAIN  38  38  99 SE6       29.52S                  
PUYALLUP       NOT AVBL                                               
JBLM-FT LEWIS  DRIZZLE   39  39 100 NE6       29.51S                  
TACOMA NARROWS CLOUDY    38  36  92 VRB3      29.52R                  
$$
 
WAZ001-503-506-510-514-515-290400-
NORTH INTERIOR
  
CITY           SKY/WX    TMP DP  RH WIND       PRES   REMARKS
BELLINGHAM     CLOUDY    40  34  79 CALM      29.46S                  
FRIDAY HARBOR  CLOUDY    41  30  65 SW7G17    29.48S                  
EASTSOUND      LGT RAIN  37  36  93 CALM      29.46R                  
PORT ANGELES   CLOUDY    41  28  60 W17G24    29.47S                  
NAS WHIDBEY    CLOUDY    45  32  60 W24G32    29.48F                  
BURLINGTON     CLOUDY    39  37  93 SE6       29.49S                  
$$
 
WAZ020-022-039-040-504-511-512-290400-
SOUTHWEST INTERIOR
  
CITY           SKY/WX    TMP DP  RH WIND       PRES   REMARKS
SHELTON        CLOUDY    38  37  97 SE3       29.49R                  
OLYMPIA        CLOUDY    42  37  82 W6        29.52R                  
CHEHALIS       CLOUDY    43  41  93 SW5       29.54F                  
KELSO          CLOUDY    45  39  81 CALM      29.59R                  
VANCOUVER      LGT RAIN  45  40  82 NW8       29.55R                  
SCAPPOOSE, OR  MOCLDY    46  39  76 NW8       29.54R                  
PORTLAND, OR   LGT RAIN  45  42  89 NW10      29.56R                  
$$
 
WAZ021-516-517-290400-
WASHINGTON COAST
  
CITY           SKY/WX    TMP DP  RH WIND       PRES   REMARKS
FORKS          MOCLDY    40  31  70 W7        29.51F                  
HOQUIAM        CLOUDY    42  38  85 NW3       29.54S                  
ASTORIA, OR    CLOUDY    45  40  82 W7        29.57R                  
$$
 
WAZ019-023-024-040-518-519-290400-
CASCADE MOUNTAINS AND COLUMBIA GORGE
  
CITY           SKY/WX    TMP DP  RH WIND       PRES   REMARKS
STAMPEDE PASS  NOT AVBL                                               
TROUTDALE, OR  LGT RAIN  46  42  86 VRB3      29.54R                  
THE DALLES, OR LGT RAIN  54  47  77 SW12      29.40R                  
$$

WAZ026-027-041>044-520-521-290400-
EAST SLOPES
  
CITY           SKY/WX    TMP DP  RH WIND       PRES   REMARKS
OMAK           FLURRIES  27  23  85 N21G32    29.33R WCI  13          
WENATCHEE      PTCLDY    47  37  68 NW16      29.27R                  
ELLENSBURG     CLOUDY    44  36  73 W9        29.33R                  
YAKIMA         CLOUDY    50  40  68 VRB5      29.32R                  
$$

WAZ028-034-035-290400-
COLUMBIA BASIN
  
CITY           SKY/WX    TMP DP  RH WIND       PRES   REMARKS
EPHRATA        MOCLDY    47  43  86 W5        29.27R                  
MOSES LAKE     MOCLDY    49  42  77 SW14      29.28R                  
PASCO          MOCLDY    60  43  53 SW30G41   29.31F                  
HERMISTON, OR  MOCLDY    60  40  47 SW24G38   29.38F                  
$$

WAZ036>038-290400-
NORTHEAST WASHINGTON
  
CITY           SKY/WX    TMP DP  RH WIND       PRES   REMARKS
SPOKANE GEIGER RAIN      47  43  86 SW36G44   29.24S                  
SPOKANE FELTS  LGT RAIN  49  43  80 SW25G38   29.26S                  
FAIRCHILD AFB  LGT RAIN  46  44  94 S28G39    29.25S                  
COEURDALENE,ID CLOUDY    48  41  76 SW31G44   29.23S                  
DEER PARK      LGT RAIN  47  43  86 SW29G37   29.22F                  
$$

WAZ029>033-290400-
SOUTHEAST WASHINGTON
  
CITY           SKY/WX    TMP DP  RH WIND       PRES   REMARKS
PULLMAN        LGT RAIN  50  40  68 SW25G37   29.37F                  
LEWISTON, ID   PTCLDY    56  39  53 SW7       29.38F                  
WALLA WALLA    PTCLDY    59  38  45 SW26G37   29.39S                  
PENDLETON, OR  CLOUDY    54  39  57 S13       29.41F                  
$$

Return to Home page


Western Regional Climate Center, wrcc@dri.edu